Location: ????
(33.1659°N, 35.6604°E)
Time: 06:09:50
(UTC+00:00)

Cosmos 2333 Rocket - Pass Details

Date: 20 September 2019
Orbit: 840 x 862 km, 70.8° (Epoch: 15 October)

Event Time Altitude Azimuth Distance (km) Brightness Sun altitude
Rises 17:29:13 0° 328° (NNW) 3,422 6.1 -23.8°
Reaches altitude 10° 17:31:50 10° 320° (NW) 2,486 5.4 -24.3°
Maximum altitude 17:36:59 36° 256° (WSW) 1,339 3.6 -25.4°
Drops below altitude 10° 17:42:07 10° 192° (SSW) 2,484 4.5 -26.4°
Enters shadow 17:42:29 - 190° (S) 2,609 4.6 -26.4°
